Location: Black Swamp Observatory
(41.3920°N, 84.1250°W)
Time: 21:45:21
(UTC-05:00)

S-56A Canister/Altair - All Passes

Search period start: 22 January 2022 00:00
Search period end: 01 February 2022 00:00
Orbit: 634 x 2499 km, 38.9° (Epoch: 22 January)

Date Brightness Start Highest point End Pass type
(mag) Time Alt. Az. Time Alt. Az. Time Alt. Az.
22 Jan - 09:00:24 10° SW 09:04:54 38° SSE 09:10:55 10° E daylight
22 Jan - 11:02:44 10° WSW 11:08:26 73° S 11:17:05 10° E daylight
22 Jan - 13:05:50 10° W 13:12:51 63° SSW 13:23:38 10° ESE daylight
22 Jan - 15:09:44 10° W 15:17:36 34° SSW 15:28:26 10° SSE daylight
22 Jan - 17:18:47 10° WSW 17:22:16 12° SW 17:26:03 10° SSW daylight
23 Jan - 08:28:17 10° SW 08:32:28 32° SSE 08:37:45 10° E daylight
23 Jan - 10:30:27 10° WSW 10:35:48 70° S 10:43:41 10° E daylight
23 Jan - 12:33:27 10° W 12:40:00 65° SSW 12:50:05 10° ESE daylight
23 Jan - 14:37:08 10° W 14:44:37 36° SSW 14:55:10 10° SSE daylight
23 Jan - 16:44:45 10° WSW 16:49:16 13° SW 16:54:21 10° SSW daylight
24 Jan - 07:56:13 10° SSW 08:00:04 27° SSE 08:04:39 10° E daylight
24 Jan - 09:58:10 10° WSW 10:03:12 67° S 10:10:24 10° E daylight
24 Jan - 12:01:06 10° W 12:07:14 66° S 12:16:36 10° ESE daylight
24 Jan - 14:04:36 10° W 14:11:41 38° SSW 14:21:52 10° SE daylight
24 Jan - 16:11:14 10° WSW 16:16:17 15° SW 16:22:09 10° S daylight
25 Jan - 07:24:11 10° SSW 07:27:39 22° SSE 07:31:34 10° E visible
25 Jan - 09:25:53 10° WSW 09:30:38 62° SSE 09:37:13 10° E daylight
25 Jan - 11:28:47 10° W 11:34:31 68° S 11:43:10 10° ESE daylight
25 Jan - 13:32:07 10° W 13:38:49 40° SSW 13:48:33 10° SE daylight
25 Jan - 15:38:02 10° WSW 15:43:20 16° SW 15:49:41 10° S daylight
26 Jan - 06:52:13 10° S 06:55:16 18° SE 06:58:31 10° ESE visible
26 Jan - 08:53:36 10° WSW 08:58:09 57° SSE 09:04:07 10° E daylight
26 Jan - 10:56:28 10° W 11:01:51 69° S 11:09:49 10° ESE daylight
26 Jan - 12:59:42 10° W 13:06:00 42° SSW 13:15:15 10° SE daylight
26 Jan - 15:05:02 10° WSW 15:10:25 18° SW 15:17:02 10° S daylight
27 Jan - 06:20:20 10° S 06:22:51 15° SE 06:25:27 10° ESE visible
27 Jan - 08:21:18 10° WSW 08:25:41 51° SSE 08:31:07 10° E daylight
27 Jan - 10:24:10 10° W 10:29:14 69° S 10:36:32 10° ESE daylight
27 Jan - 12:27:19 10° W 12:33:14 44° SSW 12:41:56 10° SE daylight
27 Jan - 14:32:11 10° WSW 14:37:32 19° SSW 14:44:17 10° S daylight
28 Jan - 05:48:38 10° S 05:50:26 12° SE 05:52:13 10° ESE visible
28 Jan - 07:49:00 10° SW 07:53:14 45° SSE 07:58:13 10° E daylight
28 Jan - 09:51:50 10° W 09:56:40 69° S 10:03:22 10° E daylight
28 Jan - 11:54:57 10° W 12:00:32 46° SSW 12:08:41 10° SE daylight
28 Jan - 13:59:27 10° WSW 14:04:43 20° SSW 14:11:27 10° S daylight
29 Jan - 07:16:40 10° SW 07:20:49 40° SSE 07:25:24 10° E visible
29 Jan - 09:19:31 10° W 09:24:09 69° S 09:30:17 10° E daylight
29 Jan - 11:22:37 10° W 11:27:53 48° SSW 11:35:28 10° SE daylight
29 Jan - 13:26:49 10° WSW 13:31:55 21° SSW 13:38:34 10° SSE daylight
30 Jan - 06:44:19 10° SW 06:48:24 35° SSE 06:52:39 10° E visible
30 Jan - 08:47:10 10° W 08:51:38 67° S 08:57:18 10° E daylight
30 Jan - 10:50:17 10° W 10:55:16 50° SSW 11:02:19 10° ESE daylight
30 Jan - 12:54:15 10° WSW 12:59:11 22° SSW 13:05:39 10° SSE daylight
31 Jan - 06:11:56 10° SW 06:15:59 31° SSE 06:19:58 10° E visible
31 Jan - 08:14:47 10° WSW 08:19:10 65° S 08:24:24 10° E daylight
31 Jan - 10:17:57 10° W 10:22:43 52° SSW 10:29:13 10° ESE daylight
31 Jan - 12:21:45 10° WSW 12:26:29 24° SSW 12:32:44 10° SSE daylight
